M I D A S
Marine Information and Data Acquisition System
Tripno 172 of the Zeeleeuw from 2001-11-05 07:02:34 to 2001-11-08 17:00:00
Back to CruiseResearch ActivitiesStationsMapUnderway DataData graphs

EquipmentUnitsComment
TimeDGPSUTC
LatitudeDGPSDM.mWGS84
LongitudeDGPSDM.mWGS84
TemperatureSBE03/SBE38deg celciusITS90
ConductivitySBE21S/mITS90
SalinitySBE21 Practical Salinity Units
ChlorophylAChelsea fluorimeterg/lCalibrated in Aceton
Missing or incorrect values are displayed as -999
Sea surface data collected by the RV Zeeleeuw from 2001-11-05 07:02:34 to 2001-11-08 17:00:00
                                                                                    Next 1000 lines
Time Latitude Longitude Temperature Conductivity Salinity ChlorophylA
2001-11-05 07:02:44 51°13.688 2°55.906 18.910894 0.144351 0.776497  
2001-11-05 07:02:49 51°13.688 2°55.906 18.910894 0.144351 0.776485  
2001-11-05 07:02:54 51°13.688 2°55.906 18.910689 0.144351 0.776497  
2001-11-05 07:02:59 51°13.688 2°55.906 18.910689 0.144351 0.776497  
2001-11-05 07:03:05 51°13.688 2°55.906 18.911141 0.144351 0.776485  
2001-11-05 07:03:09 51°13.688 2°55.906 18.915127 0.144351 0.776497  
2001-11-05 07:03:15 51°13.688 2°55.907 18.916237 0.144351 0.776497  
2001-11-05 07:03:19 51°13.688 2°55.907 18.915579 0.144351 0.776485  
2001-11-05 07:03:24 51°13.688 2°55.907 18.915127 0.144351 0.776497  
2001-11-05 07:03:29 51°13.688 2°55.907 18.915127 0.144351 0.776497  
2001-11-05 07:03:35 51°13.688 2°55.907 18.914963 0.144351 0.776509  
2001-11-05 07:03:39 51°13.688 2°55.907 18.913976 0.144351 0.776497  
2001-11-05 07:03:45 51°13.688 2°55.908 18.918744 0.144351 0.776509  
2001-11-05 07:03:49 51°13.688 2°55.908 18.914141 0.144351 0.776509  
2001-11-05 07:03:55 51°13.688 2°55.908 18.914881 0.144351 0.776509  
2001-11-05 07:03:59 51°13.688 2°55.908 18.914881 0.144351 0.776509  
2001-11-05 07:04:05 51°13.688 2°55.908 18.914675 0.144351 0.776509  
2001-11-05 07:04:09 51°13.688 2°55.908 18.913853 0.144351 0.776521  
2001-11-05 07:04:15 51°13.689 2°55.907 18.913524 0.144351 0.776521  
2001-11-05 07:04:19 51°13.689 2°55.907 18.913976 0.144351 0.776509  
2001-11-05 07:04:25 51°13.689 2°55.907 18.913894 0.144351 0.776509  
2001-11-05 07:04:29 51°13.689 2°55.908 18.913894 0.144351 0.776509  
2001-11-05 07:04:35 51°13.689 2°55.908 18.915579 0.144351 0.776521  
2001-11-05 07:04:39 51°13.689 2°55.908 18.91447 0.144351 0.776509  
2001-11-05 07:04:45 51°13.689 2°55.908 18.909086 0.144351 0.776521  
2001-11-05 07:04:49 51°13.689 2°55.908 18.913278 0.144351 0.776521  
2001-11-05 07:04:55 51°13.689 2°55.908 18.914511 0.144351 0.776533  
2001-11-05 07:05:00 51°13.689 2°55.907 18.914511 0.144351 0.776533  
2001-11-05 07:05:05 51°13.689 2°55.907 18.914963 0.144351 0.776521  
2001-11-05 07:05:10 51°13.689 2°55.907 18.909579 0.144351 0.776521  
2001-11-05 07:05:15 51°13.689 2°55.907 18.917223 0.144351 0.776533  
2001-11-05 07:05:20 51°13.69 2°55.907 18.911881 0.144351 0.776533  
2001-11-05 07:05:25 51°13.69 2°55.907 18.917223 0.144351 0.776533  
2001-11-05 07:05:30 51°13.69 2°55.907 18.917223 0.144351 0.776533  
2001-11-05 07:05:35 51°13.69 2°55.907 18.912826 0.144351 0.776533  
2001-11-05 07:05:40 51°13.69 2°55.907 18.910894 0.144351 0.776545  
2001-11-05 07:05:45 51°13.69 2°55.907 18.913483 0.144351 0.776533  
2001-11-05 07:05:50 51°13.69 2°55.907 18.916689 0.144351 0.776533  
2001-11-05 07:05:55 51°13.69 2°55.907 18.916771 0.144351 0.776545  
2001-11-05 07:06:00 51°13.69 2°55.907 18.916771 0.144351 0.776545  
2001-11-05 07:06:05 51°13.69 2°55.907 18.915908 0.144351 0.776533  
2001-11-05 07:06:10 51°13.69 2°55.907 18.918661 0.144351 0.776545  
2001-11-05 07:06:15 51°13.69 2°55.907 18.910606 0.144351 0.776545  
2001-11-05 07:06:20 51°13.69 2°55.907 18.911305 0.144351 0.776533  
2001-11-05 07:06:25 51°13.69 2°55.907 18.908264 0.144351 0.776533  
2001-11-05 07:06:30 51°13.689 2°55.907 18.908264 0.144351 0.776533  
2001-11-05 07:06:35 51°13.689 2°55.906 18.911017 0.144351 0.776545  
2001-11-05 07:06:40 51°13.689 2°55.906 18.917839 0.144351 0.776557  
2001-11-05 07:06:45 51°13.689 2°55.906 18.91525 0.144351 0.776545  
2001-11-05 07:06:50 51°13.689 2°55.906 18.915949 0.144351 0.776557  
2001-11-05 07:06:55 51°13.689 2°55.906 18.918497 0.144351 0.776545  
2001-11-05 07:07:00 51°13.689 2°55.906 18.918497 0.144351 0.776545  
2001-11-05 07:07:05 51°13.689 2°55.906 18.919935 0.144351 0.776557  
2001-11-05 07:07:10 51°13.689 2°55.906 18.920264 0.144351 0.776557  
2001-11-05 07:07:15 51°13.689 2°55.906 18.919031 0.144351 0.776557  
2001-11-05 07:07:20 51°13.689 2°55.906 18.9171 0.144351 0.776569  
2001-11-05 07:07:25 51°13.689 2°55.906 18.916771 0.144351 0.776569  
2001-11-05 07:07:30 51°13.689 2°55.906 18.916771 0.144351 0.776569  
2001-11-05 07:07:35 51°13.689 2°55.906 18.918826 0.144351 0.776557  
2001-11-05 07:07:40 51°13.689 2°55.906 18.916771 0.144351 0.776569  
2001-11-05 07:07:45 51°13.689 2°55.906 18.917223 0.144351 0.776569  
2001-11-05 07:07:50 51°13.689 2°55.906 18.91747 0.144351 0.776569  
2001-11-05 07:07:55 51°13.689 2°55.906 18.919278 0.144351 0.776569  
2001-11-05 07:08:00 51°13.689 2°55.906 18.919278 0.144351 0.776569  
2001-11-05 07:08:05 51°13.689 2°55.906 18.912579 0.144351 0.776557  
2001-11-05 07:08:10 51°13.689 2°55.906 18.91336 0.144351 0.776569  
2001-11-05 07:08:15 51°13.689 2°55.906 18.912579 0.144351 0.776581  
2001-11-05 07:08:20 51°13.689 2°55.906 18.916853 0.144351 0.776581  
2001-11-05 07:08:25 51°13.689 2°55.906 18.911716 0.144351 0.776581  
2001-11-05 07:08:30 51°13.689 2°55.906 18.911716 0.144351 0.776581  
2001-11-05 07:08:35 51°13.689 2°55.906 18.914346 0.144351 0.776593  
2001-11-05 07:08:40 51°13.689 2°55.906 18.914881 0.144351 0.776581  
2001-11-05 07:08:45 51°13.689 2°55.906 18.914511 0.144351 0.776581  
2001-11-05 07:08:50 51°13.689 2°55.906 18.914511 0.144351 0.776581  
2001-11-05 07:08:55 51°13.689 2°55.906 18.91262 0.144351 0.776581  
2001-11-05 07:09:00 51°13.689 2°55.906 18.91262 0.144351 0.776581  
2001-11-05 07:09:05 51°13.689 2°55.906 18.911428 0.144351 0.776581  
2001-11-05 07:09:10 51°13.689 2°55.906 18.911511 0.144351 0.776581  
2001-11-05 07:09:15 51°13.689 2°55.906 18.913853 0.144351 0.776593  
2001-11-05 07:09:20 51°13.689 2°55.906 18.913853 0.144351 0.776593  
2001-11-05 07:09:25 51°13.689 2°55.906 18.91225 0.144351 0.776581  
2001-11-05 07:09:30 51°13.689 2°55.906 18.91225 0.144351 0.776581  
2001-11-05 07:09:35 51°13.689 2°55.906 18.910689 0.144351 0.776605  
2001-11-05 07:09:40 51°13.689 2°55.906 18.90888 0.144351 0.776605  
2001-11-05 07:09:45 51°13.689 2°55.906 18.910154 0.144351 0.776593  
2001-11-05 07:09:50 51°13.689 2°55.906 18.909497 0.144351 0.776605  
2001-11-05 07:09:55 51°13.689 2°55.906 18.911346 0.144351 0.776605  
2001-11-05 07:10:00 51°13.689 2°55.906 18.911346 0.144351 0.776605  
2001-11-05 07:10:05 51°13.689 2°55.906 18.913524 0.144351 0.776605  
2001-11-05 07:10:10 51°13.689 2°55.906 18.915333 0.144351 0.776617  
2001-11-05 07:10:15 51°13.689 2°55.906 18.915415 0.144351 0.776617  
2001-11-05 07:10:20 51°13.689 2°55.906 18.91299 0.144351 0.776605  
2001-11-05 07:10:25 51°13.689 2°55.906 18.916196 0.144351 0.776617  
2001-11-05 07:10:30 51°13.689 2°55.906 18.916196 0.144351 0.776617  
2001-11-05 07:10:35 51°13.689 2°55.906 18.916113 0.144351 0.776629  
2001-11-05 07:10:40 51°13.689 2°55.906 18.9111 0.144351 0.776617  
2001-11-05 07:10:45 51°13.689 2°55.906 18.908757 0.144351 0.776617  
2001-11-05 07:10:50 51°13.689 2°55.906 18.914511 0.144351 0.776617  
2001-11-05 07:10:55 51°13.689 2°55.906 18.90699 0.144351 0.776629  
2001-11-05 07:11:00 51°13.689 2°55.906 18.90699 0.144351 0.776629  
2001-11-05 07:11:05 51°13.689 2°55.905 18.907031 0.144351 0.776617  
2001-11-05 07:11:10 51°13.689 2°55.905 18.906579 0.144351 0.776629  
2001-11-05 07:11:15 51°13.689 2°55.905 18.906455 0.144351 0.776629  
2001-11-05 07:11:20 51°13.689 2°55.905 18.906373 0.144351 0.776629  
2001-11-05 07:11:25 51°13.689 2°55.905 18.911264 0.144351 0.776629  
2001-11-05 07:11:30 51°13.689 2°55.905 18.911264 0.144351 0.776629  
2001-11-05 07:11:35 51°13.689 2°55.905 18.912333 0.144351 0.776629  
2001-11-05 07:11:40 51°13.689 2°55.905 18.907524 0.144351 0.776641  
2001-11-05 07:11:45 51°13.689 2°55.905 18.912538 0.144351 0.776629  
2001-11-05 07:11:50 51°13.689 2°55.905 18.910524 0.144351 0.776641  
2001-11-05 07:11:55 51°13.689 2°55.905 18.911428 0.144351 0.776641  
2001-11-05 07:12:00 51°13.689 2°55.905 18.911428 0.144351 0.776641  
2001-11-05 07:12:05 51°13.689 2°55.905 18.911552 0.144351 0.776641  
2001-11-05 07:12:10 51°13.689 2°55.905 18.911346 0.144351 0.776641  
2001-11-05 07:12:15 51°13.689 2°55.905 18.911881 0.144351 0.776641  
2001-11-05 07:12:20 51°13.689 2°55.905 18.91262 0.144351 0.776641  
2001-11-05 07:12:25 51°13.689 2°55.905 18.914429 0.144351 0.776653  
2001-11-05 07:12:30 51°13.689 2°55.905 18.914429 0.144351 0.776653  
2001-11-05 07:12:35 51°13.689 2°55.905 18.911059 0.144351 0.776653  
2001-11-05 07:12:40 51°13.689 2°55.905 18.913689 0.144351 0.776641  
2001-11-05 07:12:45 51°13.69 2°55.905 18.918127 0.144351 0.776653  
2001-11-05 07:12:50 51°13.69 2°55.905 18.91299 0.144351 0.776665  
2001-11-05 07:12:55 51°13.69 2°55.905 18.908428 0.144351 0.776653  
2001-11-05 07:13:00 51°13.689 2°55.905 18.908428 0.144351 0.776653  
2001-11-05 07:13:05 51°13.689 2°55.905 18.902469 0.144351 0.776665  
2001-11-05 07:13:10 51°13.689 2°55.905 18.91073 0.144351 0.776665  
2001-11-05 07:13:15 51°13.689 2°55.905 18.911634 0.144351 0.776665  
2001-11-05 07:13:20 51°13.689 2°55.905 18.914757 0.144351 0.776665  
2001-11-05 07:13:25 51°13.689 2°55.905 18.908346 0.144351 0.776665  
2001-11-05 07:13:30 51°13.689 2°55.905 18.908346 0.144351 0.776665  
2001-11-05 07:13:35 51°13.689 2°55.905 18.904154 0.144351 0.776665  
2001-11-05 07:13:40 51°13.689 2°55.905 18.916689 0.144351 0.776677  
2001-11-05 07:13:45 51°13.689 2°55.905 18.910401 0.144351 0.776677  
2001-11-05 07:13:50 51°13.689 2°55.905 18.912867 0.144351 0.776677  
2001-11-05 07:13:55 51°13.689 2°55.905 18.911839 0.144351 0.776677  
2001-11-05 07:14:00 51°13.689 2°55.905 18.911839 0.144351 0.776677  
2001-11-05 07:14:05 51°13.689 2°55.905 18.909826 0.144351 0.776677  
2001-11-05 07:14:10 51°13.689 2°55.905 18.912538 0.144351 0.776677  
2001-11-05 07:14:15 51°13.689 2°55.905 18.915209 0.144351 0.776689  
2001-11-05 07:14:20 51°13.689 2°55.905 18.914552 0.144351 0.776677  
2001-11-05 07:14:25 51°13.689 2°55.905 18.909702 0.144351 0.776689  
2001-11-05 07:14:30 51°13.689 2°55.905 18.909702 0.144351 0.776689  
2001-11-05 07:14:35 51°13.689 2°55.905 18.913689 0.144351 0.776677  
2001-11-05 07:14:40 51°13.689 2°55.905 18.909908 0.144351 0.776689  
2001-11-05 07:14:45 51°13.689 2°55.905 18.911593 0.144351 0.776689  
2001-11-05 07:14:50 51°13.689 2°55.905 18.915333 0.144351 0.776701  
2001-11-05 07:14:55 51°13.689 2°55.905 18.916237 0.144351 0.776689  
2001-11-05 07:15:00 51°13.689 2°55.905 18.916237 0.144351 0.776689  
2001-11-05 07:15:05 51°13.689 2°55.905 18.919113 0.144351 0.776701  
2001-11-05 07:15:10 51°13.689 2°55.905 18.915497 0.144351 0.776701  
2001-11-05 07:15:15 51°13.689 2°55.905 18.917593 0.144351 0.776701  
2001-11-05 07:15:20 51°13.689 2°55.905 18.918415 0.144351 0.776701  
2001-11-05 07:15:25 51°13.689 2°55.905 18.909785 0.144351 0.776714  
2001-11-05 07:15:30 51°13.689 2°55.905 18.909785 0.144351 0.776714  
2001-11-05 07:15:35 51°13.689 2°55.905 18.907976 0.144351 0.776689  
2001-11-05 07:15:40 51°13.689 2°55.905 18.909045 0.144351 0.776714  
2001-11-05 07:15:45 51°13.689 2°55.905 18.906209 0.144351 0.776726  
2001-11-05 07:15:50 51°13.689 2°55.905 18.911675 0.144351 0.776714  
2001-11-05 07:15:55 51°13.689 2°55.905 18.905181 0.144351 0.776726  
2001-11-05 07:16:00 51°13.689 2°55.905 18.905181 0.144351 0.776726  
2001-11-05 07:16:05 51°13.689 2°55.905 18.917018 0.144351 0.776726  
2001-11-05 07:16:10 51°13.689 2°55.905 18.9111 0.144351 0.776714  
2001-11-05 07:16:15 51°13.689 2°55.905 18.915045 0.144351 0.776726  
2001-11-05 07:16:20 51°13.689 2°55.905 18.909785 0.144351 0.776726  
2001-11-05 07:16:25 51°13.689 2°55.905 18.919031 0.144351 0.776726  
2001-11-05 07:16:30 51°13.689 2°55.905 18.919031 0.144351 0.776726  
2001-11-05 07:16:35 51°13.689 2°55.905 18.918661 0.144351 0.776738  
2001-11-05 07:16:40 51°13.689 2°55.905 18.920017 0.144351 0.776738  
2001-11-05 07:16:45 51°13.689 2°55.905 18.919113 0.144351 0.776738  
2001-11-05 07:16:50 51°13.689 2°55.905 18.912415 0.144351 0.776738  
2001-11-05 07:16:55 51°13.689 2°55.905 18.912538 0.144351 0.77675  
2001-11-05 07:17:00 51°13.689 2°55.905 18.912538 0.144351 0.77675  
2001-11-05 07:17:05 51°13.689 2°55.905 18.913812 0.144351 0.77675  
2001-11-05 07:17:10 51°13.689 2°55.905 18.914429 0.144351 0.77675  
2001-11-05 07:17:15 51°13.689 2°55.905 18.914716 0.144351 0.77675  
2001-11-05 07:17:20 51°13.689 2°55.905 18.918374 0.144351 0.776762  
2001-11-05 07:17:25 51°13.689 2°55.905 18.914305 0.144351 0.77675  
2001-11-05 07:17:30 51°13.689 2°55.905 18.914305 0.144351 0.77675  
2001-11-05 07:17:35 51°13.689 2°55.905 18.915415 0.144351 0.776762  
2001-11-05 07:17:40 51°13.689 2°55.905 18.914675 0.144351 0.776774  
2001-11-05 07:17:45 51°13.689 2°55.905 18.907894 0.144351 0.776762  
2001-11-05 07:17:50 51°13.689 2°55.905 18.915415 0.144351 0.776762  
2001-11-05 07:17:55 51°13.689 2°55.905 18.916566 0.144351 0.776774  
2001-11-05 07:18:00 51°13.689 2°55.905 18.916566 0.144351 0.776774  
2001-11-05 07:18:05 51°13.689 2°55.905 18.915374 0.144351 0.776774  
2001-11-05 07:18:10 51°13.689 2°55.905 18.917387 0.144351 0.776774  
2001-11-05 07:18:15 51°13.689 2°55.905 18.911223 0.144351 0.776774  
2001-11-05 07:18:20 51°13.689 2°55.905 18.910237 0.144351 0.776786  
2001-11-05 07:18:25 51°13.689 2°55.905 18.912333 0.144351 0.776786  
2001-11-05 07:18:30 51°13.689 2°55.905 18.912333 0.144351 0.776786  
2001-11-05 07:18:35 51°13.689 2°55.905 18.917387 0.144351 0.776786  
2001-11-05 07:18:40 51°13.689 2°55.905 18.912086 0.144351 0.776798  
2001-11-05 07:18:45 51°13.689 2°55.905 18.912538 0.144351 0.776798  
2001-11-05 07:18:50 51°13.69 2°55.905 18.911017 0.144351 0.77681  
2001-11-05 07:18:55 51°13.69 2°55.905 18.914716 0.144351 0.77681  
2001-11-05 07:19:00 51°13.69 2°55.905 18.914716 0.144351 0.77681  
2001-11-05 07:19:05 51°13.69 2°55.905 18.915497 0.144351 0.776798  
2001-11-05 07:19:10 51°13.69 2°55.904 18.915497 0.144351 0.77681  
2001-11-05 07:19:15 51°13.69 2°55.904 18.914881 0.144351 0.77681  
2001-11-05 07:19:20 51°13.69 2°55.905 18.915744 0.144351 0.776822  
2001-11-05 07:19:25 51°13.69 2°55.905 18.916196 0.144351 0.776822  
2001-11-05 07:19:30 51°13.69 2°55.905 18.916196 0.144351 0.776822  
2001-11-05 07:19:35 51°13.69 2°55.905 18.91299 0.144351 0.776822  
2001-11-05 07:19:40 51°13.69 2°55.905 18.913894 0.144351 0.776834  
2001-11-05 07:19:45 51°13.689 2°55.905 18.914675 0.144351 0.776834  
2001-11-05 07:19:50 51°13.689 2°55.905 18.913771 0.144351 0.776822  
2001-11-05 07:19:55 51°13.689 2°55.905 18.907647 0.144351 0.776834  
2001-11-05 07:20:00 51°13.689 2°55.905 18.907647 0.144351 0.776834  
2001-11-05 07:20:05 51°13.689 2°55.905 18.911552 0.144351 0.776846  
2001-11-05 07:20:10 51°13.689 2°55.905 18.912045 0.144351 0.776846  
2001-11-05 07:20:15 51°13.689 2°55.905 18.914511 0.144351 0.776846  
2001-11-05 07:20:20 51°13.689 2°55.905 18.917757 0.144351 0.776846  
2001-11-05 07:20:25 51°13.689 2°55.905 18.916113 0.144351 0.776858  
2001-11-05 07:20:30 51°13.689 2°55.905 18.916113 0.144351 0.776858  
2001-11-05 07:20:35 51°13.689 2°55.905 18.916072 0.144351 0.776858  
2001-11-05 07:20:40 51°13.689 2°55.905 18.916196 0.144351 0.776846  
2001-11-05 07:20:45 51°13.689 2°55.905 18.912415 0.144351 0.776858  
2001-11-05 07:20:50 51°13.689 2°55.905 18.911593 0.144351 0.776858  
2001-11-05 07:20:55 51°13.689 2°55.905 18.910442 0.144351 0.776858  
2001-11-05 07:21:00 51°13.689 2°55.905 18.910442 0.144351 0.776858  
2001-11-05 07:21:05 51°13.689 2°55.905 18.911593 0.144351 0.77687  
2001-11-05 07:21:10 51°13.689 2°55.906 18.911634 0.144351 0.776858  
2001-11-05 07:21:15 51°13.689 2°55.906 18.911798 0.144351 0.77687  
2001-11-05 07:21:20 51°13.689 2°55.906 18.912867 0.144351 0.776882  
2001-11-05 07:21:25 51°13.689 2°55.906 18.917675 0.144351 0.77687  
2001-11-05 07:21:30 51°13.689 2°55.905 18.917675 0.144351 0.77687  
2001-11-05 07:21:35 51°13.689 2°55.906 18.918209 0.144351 0.776882  
2001-11-05 07:21:40 51°13.689 2°55.906 18.914963 0.144351 0.776882  
2001-11-05 07:21:45 51°13.689 2°55.906 18.915949 0.144351 0.776882  
2001-11-05 07:21:50 51°13.689 2°55.906 18.914059 0.144351 0.776894  
2001-11-05 07:21:55 51°13.689 2°55.905 18.919031 0.144351 0.776894  
2001-11-05 07:22:00 51°13.689 2°55.906 18.919031 0.144351 0.776894  
2001-11-05 07:22:05 51°13.689 2°55.905 18.918826 0.144351 0.776906  
2001-11-05 07:22:10 51°13.689 2°55.905 18.916237 0.144351 0.776894  
2001-11-05 07:22:15 51°13.689 2°55.905 18.912702 0.144252 0.77635  
2001-11-05 07:22:20 51°13.689 2°55.905 18.912538 0.144351 0.776906  
2001-11-05 07:22:25 51°13.689 2°55.905 18.919031 0.144351 0.776906  
2001-11-05 07:22:30 51°13.689 2°55.905 18.919031 0.144351 0.776906  
2001-11-05 07:22:35 51°13.689 2°55.905 18.917552 0.144351 0.776918  
2001-11-05 07:22:40 51°13.689 2°55.905 18.917018 0.144351 0.776918  
2001-11-05 07:22:45 51°13.689 2°55.905 18.917634 0.144351 0.77693  
2001-11-05 07:22:50 51°13.689 2°55.905 18.919648 0.144351 0.776918  
2001-11-05 07:22:55 51°13.689 2°55.905 18.917922 0.144351 0.776918  
2001-11-05 07:23:00 51°13.689 2°55.905 18.917922 0.144351 0.776918  
2001-11-05 07:23:05 51°13.689 2°55.905 18.917839 0.144351 0.77693  
2001-11-05 07:23:10 51°13.689 2°55.905 18.915497 0.144351 0.77693  
2001-11-05 07:23:15 51°13.689 2°55.905 18.915744 0.144351 0.77693  
2001-11-05 07:23:20 51°13.689 2°55.905 18.915497 0.144252 0.776386  
2001-11-05 07:23:25 51°13.689 2°55.905 18.915744 0.144351 0.77693  
2001-11-05 07:23:30 51°13.689 2°55.905 18.915744 0.144351 0.77693  
2001-11-05 07:23:35 51°13.689 2°55.905 18.916401 0.144351 0.776954  
2001-11-05 07:23:40 51°13.689 2°55.905 18.915867 0.144351 0.776942  
2001-11-05 07:23:45 51°13.689 2°55.905 18.917552 0.144351 0.776954  
2001-11-05 07:23:50 51°13.689 2°55.905 18.917839 0.144252 0.776398  
2001-11-05 07:23:55 51°13.689 2°55.905 18.917223 0.144252 0.776398  
2001-11-05 07:24:00 51°13.689 2°55.905 18.917223 0.144252 0.776398  
2001-11-05 07:24:05 51°13.689 2°55.905 18.917839 0.144252 0.776398  
2001-11-05 07:24:10 51°13.689 2°55.905 18.920264 0.144252 0.77641  
2001-11-05 07:24:15 51°13.689 2°55.905 18.9201 0.144252 0.77641  
2001-11-05 07:24:20 51°13.689 2°55.905 18.918004 0.144252 0.77641  
2001-11-05 07:24:25 51°13.689 2°55.905 18.915949 0.144252 0.77641  
2001-11-05 07:24:30 51°13.689 2°55.905 18.915949 0.144252 0.77641  
2001-11-05 07:24:35 51°13.689 2°55.905 18.91484 0.144351 0.776978  
2001-11-05 07:24:40 51°13.689 2°55.905 18.920552 0.144252 0.776434  
2001-11-05 07:24:45 51°13.689 2°55.905 18.920264 0.144252 0.776422  
2001-11-05 07:24:49 51°13.689 2°55.905 18.91936 0.144252 0.776434  
2001-11-05 07:24:52 51°13.689 2°55.906 18.918579 0.144252 0.776422  
2001-11-05 07:24:55 51°13.689 2°55.906 18.918579 0.144252 0.776422  
2001-11-05 07:25:00 51°13.689 2°55.906 18.919483 0.144252 0.776434  
2001-11-05 07:25:05 51°13.689 2°55.906 18.918456 0.144252 0.776434  
2001-11-05 07:25:10 51°13.689 2°55.906 18.91973 0.144351 0.777002  
2001-11-05 07:25:15 51°13.689 2°55.906 18.916935 0.144252 0.776446  
2001-11-05 07:25:20 51°13.689 2°55.906 18.917839 0.144252 0.776458  
2001-11-05 07:25:25 51°13.689 2°55.906 18.917839 0.144252 0.776458  
2001-11-05 07:25:30 51°13.689 2°55.906 18.917141 0.144252 0.776458  
2001-11-05 07:25:35 51°13.689 2°55.906 18.913894 0.144252 0.776458  
2001-11-05 07:25:40 51°13.689 2°55.906 18.912785 0.144252 0.77647  
2001-11-05 07:25:45 51°13.689 2°55.906 18.91973 0.144252 0.77647  
2001-11-05 07:25:50 51°13.689 2°55.906 18.913524 0.144252 0.776458  
2001-11-05 07:25:55 51°13.689 2°55.906 18.913524 0.144252 0.776458  
2001-11-05 07:26:00 51°13.689 2°55.906 18.913771 0.144252 0.77647  
2001-11-05 07:26:05 51°13.689 2°55.906 18.916771 0.144252 0.77647  
2001-11-05 07:26:10 51°13.689 2°55.906 18.915415 0.144252 0.77647  
2001-11-05 07:26:15 51°13.689 2°55.906 18.916031 0.144252 0.776482  
2001-11-05 07:26:20 51°13.689 2°55.906 18.909291 0.144252 0.776494  
2001-11-05 07:26:25 51°13.689 2°55.906 18.909291 0.144252 0.776494  
2001-11-05 07:26:30 51°13.689 2°55.906 18.909209 0.144252 0.776494  
2001-11-05 07:26:35 51°13.689 2°55.906 18.913771 0.144252 0.776494  
2001-11-05 07:26:40 51°13.689 2°55.906 18.916072 0.144252 0.776494  
2001-11-05 07:26:45 51°13.689 2°55.906 18.915333 0.144252 0.776506  
2001-11-05 07:26:50 51°13.689 2°55.906 18.916319 0.144252 0.776506  
2001-11-05 07:26:54 51°13.689 2°55.906 18.916319 0.144252 0.776506  
2001-11-05 07:27:00 51°13.689 2°55.906 18.916689 0.144252 0.776506  
2001-11-05 07:27:05 51°13.689 2°55.906 18.918826 0.144252 0.776506  
2001-11-05 07:27:10 51°13.689 2°55.906 18.917305 0.144252 0.776506  
2001-11-05 07:27:15 51°13.689 2°55.906 18.920182 0.144252 0.776518  
2001-11-05 07:27:20 51°13.689 2°55.906 18.919648 0.144252 0.77653  
2001-11-05 07:27:25 51°13.689 2°55.906 18.919648 0.144252 0.77653  
2001-11-05 07:27:30 51°13.689 2°55.906 18.919113 0.144252 0.77653  
2001-11-05 07:27:35 51°13.689 2°55.906 18.915949 0.144252 0.77653  
2001-11-05 07:27:40 51°13.689 2°55.906 18.913976 0.144252 0.77653  
2001-11-05 07:27:45 51°13.689 2°55.906 18.914059 0.144252 0.77653  
2001-11-05 07:27:50 51°13.689 2°55.906 18.917757 0.144252 0.77653  
2001-11-05 07:27:54 51°13.689 2°55.906 18.917757 0.144252 0.77653  
2001-11-05 07:28:00 51°13.689 2°55.906 18.918045 0.144252 0.77653  
2001-11-05 07:28:05 51°13.689 2°55.906 18.903619 0.144252 0.776554  
2001-11-05 07:28:10 51°13.689 2°55.907 18.916319 0.144252 0.776542  
2001-11-05 07:28:15 51°13.689 2°55.907 18.914346 0.144252 0.776542  
2001-11-05 07:28:20 51°13.689 2°55.907 18.915744 0.144252 0.776554  
2001-11-05 07:28:25 51°13.689 2°55.907 18.915744 0.144252 0.776554  
2001-11-05 07:28:30 51°13.689 2°55.907 18.914429 0.144252 0.776554  
2001-11-05 07:28:35 51°13.689 2°55.907 18.913237 0.144252 0.776554  
2001-11-05 07:28:40 51°13.689 2°55.907 18.912538 0.144252 0.776578  
2001-11-05 07:28:45 51°13.689 2°55.907 18.913442 0.144252 0.776578  
2001-11-05 07:28:50 51°13.689 2°55.907 18.915661 0.144252 0.77659  
2001-11-05 07:28:54 51°13.689 2°55.907 18.915661 0.144252 0.77659  
2001-11-05 07:29:00 51°13.689 2°55.907 18.915579 0.144252 0.776578  
2001-11-05 07:29:05 51°13.689 2°55.907 18.908099 0.144252 0.77659  
2001-11-05 07:29:10 51°13.689 2°55.907 18.913401 0.144252 0.776578  
2001-11-05 07:29:15 51°13.689 2°55.907 18.91484 0.144252 0.77659  
2001-11-05 07:29:20 51°13.689 2°55.907 18.912538 0.144252 0.776578  
2001-11-05 07:29:25 51°13.689 2°55.907 18.912538 0.144252 0.776578  
2001-11-05 07:29:30 51°13.689 2°55.907 18.913401 0.144252 0.77659  
2001-11-05 07:29:35 51°13.689 2°55.907 18.914223 0.144252 0.776602  
2001-11-05 07:29:40 51°13.689 2°55.907 18.915497 0.144252 0.776602  
2001-11-05 07:29:45 51°13.689 2°55.907 18.910812 0.144252 0.776602  
2001-11-05 07:29:50 51°13.689 2°55.907 18.911634 0.144252 0.776602  
2001-11-05 07:29:55 51°13.689 2°55.907 18.911634 0.144252 0.776602  
2001-11-05 07:30:00 51°13.689 2°55.907 18.913894 0.144252 0.776602  
2001-11-05 07:30:05 51°13.689 2°55.907 18.913812 0.144252 0.776614  
2001-11-05 07:30:10 51°13.689 2°55.907 18.908757 0.144252 0.776614  
2001-11-05 07:30:15 51°13.689 2°55.907 18.903332 0.144252 0.776626  
2001-11-05 07:30:20 51°13.689 2°55.907 18.904606 0.144252 0.776626  
2001-11-05 07:30:25 51°13.689 2°55.907 18.904606 0.144252 0.776626  
2001-11-05 07:30:30 51°13.689 2°55.907 18.912333 0.144252 0.776638  
2001-11-05 07:30:35 51°13.689 2°55.907 18.915579 0.144252 0.776626  
2001-11-05 07:30:40 51°13.689 2°55.907 18.913072 0.144252 0.776638  
2001-11-05 07:30:45 51°13.689 2°55.907 18.916196 0.144252 0.776638  
2001-11-05 07:30:50 51°13.689 2°55.907 18.915209 0.144252 0.776638  
2001-11-05 07:30:55 51°13.689 2°55.907 18.915209 0.144252 0.776638  
2001-11-05 07:31:00 51°13.689 2°55.907 18.906538 0.144252 0.776638  
2001-11-05 07:31:05 51°13.689 2°55.907 18.909702 0.144252 0.77665  
2001-11-05 07:31:10 51°13.689 2°55.907 18.912415 0.144252 0.77665  
2001-11-05 07:31:15 51°13.689 2°55.907 18.911675 0.144252 0.776662  
2001-11-05 07:31:20 51°13.689 2°55.907 18.908182 0.144252 0.776662  
2001-11-05 07:31:25 51°13.689 2°55.907 18.908182 0.144252 0.776662  
2001-11-05 07:31:30 51°13.689 2°55.907 18.915579 0.144252 0.776662  
2001-11-05 07:31:35 51°13.689 2°55.907 18.913278 0.144252 0.776662  
2001-11-05 07:31:40 51°13.689 2°55.907 18.914305 0.144252 0.776674  
2001-11-05 07:31:45 51°13.689 2°55.907 18.916442 0.144252 0.776674  
2001-11-05 07:31:50 51°13.689 2°55.907 18.912045 0.144252 0.776674  
2001-11-05 07:31:55 51°13.689 2°55.907 18.912045 0.144252 0.776674  
2001-11-05 07:32:00 51°13.689 2°55.907 18.905757 0.144252 0.776674  
2001-11-05 07:32:05 51°13.689 2°55.906 18.908634 0.144252 0.776686  
2001-11-05 07:32:10 51°13.689 2°55.906 18.906538 0.144252 0.776686  
2001-11-05 07:32:15 51°13.689 2°55.906 18.904729 0.144252 0.776686  
2001-11-05 07:32:20 51°13.689 2°55.906 18.90736 0.144252 0.776686  
2001-11-05 07:32:25 51°13.689 2°55.906 18.90736 0.144252 0.776686  
2001-11-05 07:32:30 51°13.689 2°55.906 18.90962 0.144252 0.776698  
2001-11-05 07:32:34 51°13.689 2°55.906 18.905058 0.144252 0.77671  
2001-11-05 07:32:40 51°13.689 2°55.906 18.903948 0.144252 0.776698  
2001-11-05 07:32:45 51°13.689 2°55.906 18.901194 0.144252 0.77671  
2001-11-05 07:32:50 51°13.689 2°55.906 18.906414 0.144252 0.776722  
2001-11-05 07:32:55 51°13.689 2°55.906 18.906414 0.144252 0.776722  
2001-11-05 07:33:13 51°13.689 2°55.907 18.912333 0.144252 0.776722  
2001-11-05 07:33:18 51°13.689 2°55.907 18.912333 0.144252 0.776722  
2001-11-05 07:33:23 51°13.689 2°55.907 18.911182 0.144252 0.776734  
2001-11-05 07:33:26 51°13.689 2°55.907 18.910237 0.144252 0.776722  
2001-11-05 07:33:29 51°13.689 2°55.907 18.911716 0.144252 0.776734  
2001-11-05 07:33:33 51°13.689 2°55.907 18.913278 0.144252 0.776734  
2001-11-05 07:33:38 51°13.69 2°55.906 18.911963 0.144252 0.776734  
2001-11-05 07:33:43 51°13.69 2°55.907 18.911963 0.144252 0.776734  
2001-11-05 07:34:08 51°13.69 2°55.906 18.905387 0.144252 0.776758  
2001-11-05 07:34:13 51°13.689 2°55.906 18.905387 0.144252 0.776758  
2001-11-05 07:34:18 51°13.689 2°55.906 18.909497 0.144252 0.776758  
2001-11-05 07:34:24 51°13.69 2°55.906 18.90999 0.144252 0.776758  
2001-11-05 07:34:28 51°13.69 2°55.906 18.915497 0.144252 0.77677  
2001-11-05 07:34:33 51°13.69 2°55.906 18.903948 0.144252 0.776782  
2001-11-05 07:34:38 51°13.69 2°55.906 18.905757 0.144252 0.77677  
2001-11-05 07:34:43 51°13.69 2°55.906 18.905757 0.144252 0.77677  
2001-11-05 07:34:48 51°13.69 2°55.906 18.909086 0.144252 0.77677  
2001-11-05 07:34:53 51°13.69 2°55.906 18.907524 0.144252 0.776782  
2001-11-05 07:34:58 51°13.69 2°55.906 18.90736 0.144252 0.776782  
2001-11-05 07:35:03 51°13.689 2°55.906 18.905263 0.144252 0.776782  
2001-11-05 07:35:08 51°13.689 2°55.906 18.908428 0.144252 0.776782  
2001-11-05 07:35:13 51°13.689 2°55.906 18.908428 0.144252 0.776782  
2001-11-05 07:35:18 51°13.689 2°55.906 18.909497 0.144252 0.776794  
2001-11-05 07:35:23 51°13.689 2°55.906 18.909785 0.144252 0.776806  
2001-11-05 07:35:28 51°13.689 2°55.906 18.907606 0.144252 0.776794  
2001-11-05 07:35:33 51°13.689 2°55.906 18.906127 0.144252 0.776806  
2001-11-05 07:35:38 51°13.689 2°55.906 18.90662 0.144252 0.776806  
2001-11-05 07:35:43 51°13.689 2°55.906 18.90662 0.144252 0.776806  
2001-11-05 07:35:48 51°13.689 2°55.906 18.910483 0.144252 0.776806  
2001-11-05 07:35:53 51°13.689 2°55.906 18.911593 0.144252 0.776806  
2001-11-05 07:35:58 51°13.689 2°55.906 18.910935 0.144252 0.776818  
2001-11-05 07:36:03 51°13.689 2°55.906 18.911963 0.144252 0.776818  
2001-11-05 07:36:08 51°13.689 2°55.906 18.912785 0.144252 0.776831  
2001-11-05 07:36:13 51°13.689 2°55.906 18.912785 0.144252 0.776831  
2001-11-05 07:36:18 51°13.689 2°55.906 18.913155 0.144252 0.776831  
2001-11-05 07:36:23 51°13.689 2°55.906 18.912209 0.144252 0.776831  
2001-11-05 07:36:28 51°13.689 2°55.906 18.908552 0.144252 0.776818  
2001-11-05 07:36:33 51°13.689 2°55.906 18.914305 0.144252 0.776831  
2001-11-05 07:36:38 51°13.689 2°55.906 18.913976 0.144252 0.776843  
2001-11-05 07:36:43 51°13.689 2°55.906 18.913976 0.144252 0.776843  
2001-11-05 07:36:48 51°13.689 2°55.906 18.911634 0.144252 0.776843  
2001-11-05 07:36:53 51°13.689 2°55.906 18.909209 0.144252 0.776362  
2001-11-05 07:36:58 51°13.689 2°55.906 18.912949 0.144252 0.776626  
2001-11-05 07:37:03 51°13.689 2°55.906 18.910894 0.144252 0.776818  
2001-11-05 07:37:08 51°13.689 2°55.907 18.909908 0.144252 0.776638  
2001-11-05 07:37:13 51°13.689 2°55.906 18.909908 0.144252 0.776638  
2001-11-05 07:37:18 51°13.689 2°55.906 18.912867 0.144252 0.776398  
2001-11-05 07:37:23 51°13.689 2°55.906 18.914511 0.144252 0.776146  
2001-11-05 07:37:28 51°13.689 2°55.906 18.918045 0.144252 0.775954  
2001-11-05 07:37:33 51°13.689 2°55.906 16.565366 0.124895 0.671369  
2001-11-05 07:37:38 51°13.689 2°55.906 15.812447 0.08047 0.423681  
2001-11-05 07:37:42 51°13.689 2°55.907 15.812447 0.08047 0.423681  
2001-11-05 07:37:48 51°13.689 2°55.907 15.382384 1.363885 8.372995  
2001-11-05 07:37:53 51°13.689 2°55.907 15.193641 1.884402 12.454156  
2001-11-05 07:37:58 51°13.689 2°55.907 15.169257 1.749478 12.059467  
2001-11-05 07:38:03 51°13.689 2°55.907 15.054814 1.852677 13.129852  
2001-11-05 07:38:08 51°13.689 2°55.907 14.990363 1.792197 12.831404  
2001-11-05 07:38:13 51°13.689 2°55.907 14.990363 1.792197 12.831404  
2001-11-05 07:38:18 51°13.689 2°55.907 14.935431 1.75378 12.662873  
2001-11-05 07:38:22 51°13.689 2°55.907 14.863979 1.728537 12.539194  
2001-11-05 07:38:28 51°13.689 2°55.906 14.817364 1.709581 12.449505  
2001-11-05 07:38:33 51°13.689 2°55.906 14.759235 1.692821 12.346792  
2001-11-05 07:38:38 51°13.689 2°55.906 14.715082 1.680451 12.269091  
2001-11-05 07:38:43 51°13.689 2°55.906 14.715082 1.680451 12.269091  
2001-11-05 07:38:48 51°13.689 2°55.906 14.656996 1.66888 12.190414  
2001-11-05 07:38:53 51°13.689 2°55.906 14.622664 1.666287 12.190788  
2001-11-05 07:38:58 51°13.689 2°55.906 14.560252 1.662197 12.181109  
2001-11-05 07:39:03 51°13.689 2°55.906 14.499403 1.657509 12.159932  
2001-11-05 07:39:08 51°13.689 2°55.906 14.461701 1.654517 12.154791  
2001-11-05 07:39:13 51°13.689 2°55.906 14.461701 1.654517 12.154791  
2001-11-05 07:39:18 51°13.689 2°55.906 14.385532 1.653021 12.160445  
2001-11-05 07:39:23 51°13.689 2°55.906 14.301629 1.654019 12.18422  
2001-11-05 07:39:28 51°13.689 2°55.906 14.244594 1.656313 12.218688  
2001-11-05 07:39:33 51°13.689 2°55.906 14.210711 1.658209 12.253809  
2001-11-05 07:39:38 51°13.689 2°55.906 14.098247 1.665691 12.331863  
2001-11-05 07:39:43 51°13.689 2°55.906 14.098247 1.665691 12.331863  
2001-11-05 07:39:48 51°13.689 2°55.906 14.077346 1.671277 12.393712  
2001-11-05 07:39:53 51°13.689 2°55.906 14.026476 1.679657 12.478784  
2001-11-05 07:39:58 51°13.689 2°55.906 13.962007 1.687139 12.562936  
2001-11-05 07:40:03 51°13.689 2°55.906 13.876557 1.699012 12.681102  
2001-11-05 07:40:08 51°13.689 2°55.906 13.853197 1.70819 12.777855  
2001-11-05 07:40:13 51°13.689 2°55.906 13.853197 1.70819 12.777855  
2001-11-05 07:40:18 51°13.689 2°55.906 13.823588 1.720662 12.89683  
2001-11-05 07:40:23 51°13.689 2°55.906 13.751302 1.73054 12.996547  
2001-11-05 07:40:28 51°13.689 2°55.906 13.692245 1.745308 13.137409  
2001-11-05 07:40:33 51°13.689 2°55.906 13.576777 1.766063 13.329019  
2001-11-05 07:40:38 51°13.689 2°55.906 13.521747 1.789016 13.541424  
2001-11-05 07:40:43 51°13.689 2°55.906 13.521747 1.789016 13.541424  
2001-11-05 07:40:48 51°13.689 2°55.906 13.464268 1.82255 13.842586  
2001-11-05 07:40:53 51°13.689 2°55.906 13.357812 1.858883 14.168623  
2001-11-05 07:40:58 51°13.689 2°55.906 13.291581 1.912891 14.643866  
2001-11-05 07:41:03 51°13.689 2°55.906 13.225955 1.974099 15.193403  
2001-11-05 07:41:08 51°13.689 2°55.906 13.187174 2.038514 15.767102  
2001-11-05 07:41:13 51°13.689 2°55.906 13.187174 2.038514 15.767102  
2001-11-05 07:41:18 51°13.689 2°55.905 13.197139 2.11403 16.436756  
2001-11-05 07:41:23 51°13.689 2°55.906 13.166434 2.186865 17.088351  
2001-11-05 07:41:28 51°13.689 2°55.905 13.144703 2.271008 17.84626  
2001-11-05 07:41:33 51°13.689 2°55.905 13.109902 2.336077 18.440459  
2001-11-05 07:41:38 51°13.689 2°55.905 13.083095 2.382762 18.872693  
2001-11-05 07:41:44 51°13.689 2°55.905 13.083095 2.382762 18.872693  
2001-11-05 07:41:48 51°13.688 2°55.905 13.08323 2.416954 19.188039  
2001-11-05 07:41:53 51°13.688 2°55.905 13.070874 2.44075 19.413469  
2001-11-05 07:41:58 51°13.688 2°55.905 13.070427 2.472147 19.702427  
2001-11-05 07:42:03 51°13.688 2°55.905 13.057979 2.505947 20.010081  
2001-11-05 07:42:08 51°13.688 2°55.905 13.062233 2.541949 20.344905  
2001-11-05 07:42:13 51°13.688 2°55.905 13.062233 2.541949 20.344905  
2001-11-05 07:42:18 51°13.688 2°55.905 13.059591 2.576555 20.659043  
2001-11-05 07:42:23 51°13.688 2°55.905 13.048978 2.623066 21.077765  
2001-11-05 07:42:29 51°13.688 2°55.905 13.047008 2.654876 21.366016  
2001-11-05 07:42:33 51°13.688 2°55.905 13.053278 2.681386 21.604903  
2001-11-05 07:42:38 51°13.688 2°55.905 13.061114 2.713201 21.88857  
2001-11-05 07:42:43 51°13.688 2°55.905 13.061114 2.713201 21.88857  
2001-11-05 07:42:48 51°13.688 2°55.905 13.065726 2.760726 22.314114  
2001-11-05 07:42:53 51°13.688 2°55.905 13.076291 2.799651 22.666402  
2001-11-05 07:42:58 51°13.688 2°55.905 13.052024 2.834775 22.98234  
2001-11-05 07:43:03 51°13.688 2°55.905 13.047097 2.848585 23.10749  
2001-11-05 07:43:08 51°13.689 2°55.905 13.031555 2.863097 23.235245  
2001-11-05 07:43:13 51°13.689 2°55.905 13.031555 2.863097 23.235245  
2001-11-05 07:43:18 51°13.689 2°55.905 13.029763 2.87941 23.379178  
2001-11-05 07:43:22 51°13.689 2°55.905 13.025463 2.901128 23.571567  
2001-11-05 07:43:28 51°13.689 2°55.905 13.027479 2.936259 23.888657  
2001-11-05 07:43:33 51°13.689 2°55.905 13.018832 2.961383 24.118416  
2001-11-05 07:43:38 51°13.689 2°55.905 13.012514 2.990012 24.381504  
2001-11-05 07:43:43 51°13.689 2°55.905 13.012514 2.990012 24.381504  
2001-11-05 07:43:48 51°13.689 2°55.905 13.010946 3.009933 24.568646  
2001-11-05 07:43:53 51°13.689 2°55.905 13.009064 3.026751 24.724606  
2001-11-05 07:43:58 51°13.689 2°55.905 13.006868 3.033559 24.787962  
2001-11-05 07:44:03 51°13.689 2°55.905 12.99535 3.044271 24.889583  
2001-11-05 07:44:08 51°13.689 2°55.905 12.986385 3.051079 24.953021  
2001-11-05 07:44:13 51°13.689 2°55.905 12.986385 3.051079 24.953021  
2001-11-05 07:44:18 51°13.689 2°55.905 12.969394 3.059388 25.029033  
2001-11-05 07:44:22 51°13.689 2°55.905 12.964507 3.065195 25.085017  
2001-11-05 07:44:28 51°13.689 2°55.905 12.964013 3.071502 25.145554  
2001-11-05 07:44:33 51°13.689 2°55.905 12.961413 3.078911 25.212504  
2001-11-05 07:44:38 51°13.689 2°55.905 12.965762 3.079412 25.225716  
2001-11-05 07:44:43 51°13.689 2°55.905 12.965762 3.079412 25.225716  
2001-11-05 07:44:48 51°13.689 2°55.905 12.969753 3.084218 25.273781  
2001-11-05 07:44:53 51°13.689 2°55.905 12.970112 3.084819 25.289468  
2001-11-05 07:44:58 51°13.689 2°55.905 12.975043 3.090425 25.343294  
2001-11-05 07:45:03 51°13.689 2°55.905 12.973878 3.097634 25.411654  
2001-11-05 07:45:08 51°13.689 2°55.905 12.975581 3.097734 25.41617  
2001-11-05 07:45:13 51°13.689 2°55.905 12.975581 3.097734 25.41617  
2001-11-05 07:45:18 51°13.689 2°55.905 12.976926 3.09403 25.380044  
2001-11-05 07:45:23 51°13.689 2°55.905 12.971636 3.091527 25.355836  
2001-11-05 07:45:28 51°13.689 2°55.905 12.97455 3.090726 25.350127  
2001-11-05 07:45:33 51°13.689 2°55.905 12.972578 3.090525 25.346257  
2001-11-05 07:45:38 51°13.689 2°55.905 12.969798 3.090626 25.349735  
2001-11-05 07:45:43 51°13.689 2°55.905 12.969798 3.090626 25.349735  
2001-11-05 07:45:48 51°13.689 2°55.905 12.966838 3.091727 25.355591  
2001-11-05 07:45:53 51°13.689 2°55.905 12.967915 3.092127 25.359731  
2001-11-05 07:45:58 51°13.689 2°55.905 12.961996 3.094831 25.386782  
2001-11-05 07:46:03 51°13.689 2°55.905 12.960964 3.096032 25.396631  
2001-11-05 07:46:08 51°13.689 2°55.905 12.948093 3.095131 25.392077  
2001-11-05 07:46:13 51°13.689 2°55.905 12.948093 3.095131 25.392077  
2001-11-05 07:46:18 51°13.689 2°55.905 12.943652 3.095331 25.39286  
2001-11-05 07:46:23 51°13.689 2°55.905 12.935264 3.093229 25.377939  
2001-11-05 07:46:28 51°13.689 2°55.905 12.930329 3.086821 25.319399  
2001-11-05 07:46:33 51°13.689 2°55.905 12.931496 3.080313 25.264074  
2001-11-05 07:46:38 51°13.689 2°55.905 12.92849 3.077009 25.235191  
2001-11-05 07:46:43 51°13.689 2°55.905 12.92849 3.077009 25.235191  
2001-11-05 07:46:48 51°13.689 2°55.905 12.931271 3.072204 25.19681  
2001-11-05 07:46:53 51°13.689 2°55.905 12.929746 3.0689 25.171505  
2001-11-05 07:46:58 51°13.689 2°55.905 12.931854 3.0685 25.171969  
2001-11-05 07:47:03 51°13.689 2°55.905 12.930733 3.068199 25.172317  
2001-11-05 07:47:08 51°13.689 2°55.905 12.928938 3.0684 25.176686  
2001-11-05 07:47:13 51°13.689 2°55.905 12.928938 3.0684 25.176686  
2001-11-05 07:47:18 51°13.689 2°55.905 12.926022 3.0686 25.180545  
2001-11-05 07:47:23 51°13.689 2°55.905 12.925663 3.069101 25.188149  
2001-11-05 07:47:28 51°13.689 2°55.905 12.928131 3.070102 25.193634  
2001-11-05 07:47:33 51°13.689 2°55.905 12.92517 3.069801 25.189891  
2001-11-05 07:47:38 51°13.689 2°55.905 12.927413 3.069701 25.175177  
2001-11-05 07:47:43 51°13.689 2°55.905 12.927413 3.069701 25.175177  
2001-11-05 07:47:48 51°13.689 2°55.905 12.927862 3.070302 25.178059  
2001-11-05 07:47:53 51°13.689 2°55.905 12.925349 3.0691 25.168718  
2001-11-05 07:47:58 51°13.689 2°55.905 12.926112 3.0686 25.166231  
2001-11-05 07:48:03 51°13.689 2°55.905 12.92508 3.066898 25.156445  
2001-11-05 07:48:08 51°13.689 2°55.905 12.925798 3.066998 25.16195  
2001-11-05 07:48:13 51°13.689 2°55.905 12.925798 3.066998 25.16195  
2001-11-05 07:48:18 51°13.689 2°55.905 12.920683 3.067098 25.162856  
2001-11-05 07:48:23 51°13.689 2°55.905 12.922971 3.068099 25.172944  
2001-11-05 07:48:28 51°13.689 2°55.905 12.924362 3.0686 25.18208  
2001-11-05 07:48:33 51°13.689 2°55.905 12.926336 3.067899 25.175733  
2001-11-05 07:48:38 51°13.689 2°55.905 12.92517 3.069701 25.196662  
2001-11-05 07:48:43 51°13.689 2°55.905 12.92517 3.069701 25.196662  
2001-11-05 07:48:48 51°13.689 2°55.906 12.925439 3.071403 25.212593  
2001-11-05 07:48:53 51°13.689 2°55.906 12.927906 3.072905 25.227224  
2001-11-05 07:48:58 51°13.689 2°55.905 12.924631 3.072104 25.221505  
2001-11-05 07:49:03 51°13.689 2°55.905 12.922881 3.073306 25.230853  
2001-11-05 07:49:08 51°13.689 2°55.905 12.922253 3.073205 25.230458  
2001-11-05 07:49:13 51°13.689 2°55.905 12.922253 3.073205 25.230458  
2001-11-05 07:49:18 51°13.689 2°55.905 12.925663 3.072204 25.22395  
2001-11-05 07:49:23 51°13.689 2°55.905 12.92333 3.073606 25.230498  
2001-11-05 07:49:28 51°13.689 2°55.905 12.924138 3.074907 25.234086  
2001-11-05 07:49:33 51°13.689 2°55.905 12.924138 3.075007 25.233968  
2001-11-05 07:49:38 51°13.689 2°55.905 12.924721 3.075808 25.24071  
2001-11-05 07:49:43 51°13.689 2°55.905 12.924721 3.075808 25.24071  
2001-11-05 07:49:48 51°13.689 2°55.905 12.927413 3.076009 25.246625  
2001-11-05 07:49:53 51°13.689 2°55.905 12.928221 3.075608 25.248127  
2001-11-05 07:49:58 51°13.689 2°55.905 12.926246 3.075909 25.252901  
2001-11-05 07:50:03 51°13.689 2°55.905 12.925529 3.076309 25.255503  
2001-11-05 07:50:08 51°13.689 2°55.905 12.924541 3.07691 25.265053  
2001-11-05 07:50:13 51°13.689 2°55.905 12.924541 3.07691 25.265053  
2001-11-05 07:50:18 51°13.689 2°55.905 12.923599 3.076409 25.26257  
2001-11-05 07:50:22 51°13.689 2°55.905 12.924541 3.07701 25.267501  
2001-11-05 07:50:28 51°13.689 2°55.905 12.92324 3.075909 25.256493  
2001-11-05 07:50:33 51°13.689 2°55.905 12.926695 3.075909 25.258547  
2001-11-05 07:50:38 51°13.689 2°55.905 12.925214 3.078111 25.275942  
2001-11-05 07:50:43 51°13.689 2°55.905 12.925214 3.078111 25.275942  
2001-11-05 07:50:48 51°13.689 2°55.905 12.924631 3.078211 25.279418  
2001-11-05 07:50:53 51°13.689 2°55.905 12.923106 3.078312 25.281354  
2001-11-05 07:50:58 51°13.689 2°55.905 12.924721 3.079313 25.290429  
2001-11-05 07:51:02 51°13.689 2°55.905 12.929881 3.079213 25.290036  
2001-11-05 07:51:08 51°13.689 2°55.905 12.927906 3.080014 25.297297  
2001-11-05 07:51:13 51°13.689 2°55.905 12.927906 3.080014 25.297297  
2001-11-05 07:51:18 51°13.689 2°55.905 12.927772 3.080714 25.304165  
2001-11-05 07:51:23 51°13.689 2°55.905 12.925663 3.084819 25.340869  
2001-11-05 07:51:28 51°13.689 2°55.905 12.929163 3.086621 25.355149  
2001-11-05 07:51:33 51°13.689 2°55.905 12.929566 3.090126 25.389507  
2001-11-05 07:51:38 51°13.689 2°55.905 12.93154 3.092729 25.412085  
2001-11-05 07:51:43 51°13.689 2°55.905 12.93154 3.092729 25.412085  
2001-11-05 07:51:48 51°13.689 2°55.905 12.935399 3.098135 25.462685  
2001-11-05 07:51:53 51°13.689 2°55.905 12.930553 3.10154 25.494093  
2001-11-05 07:51:58 51°13.689 2°55.905 12.93329 3.102741 25.504478  
2001-11-05 07:52:02 51°13.689 2°55.905 12.924497 3.101239 25.489294  
2001-11-05 07:52:08 51°13.689 2°55.905 12.927458 3.098235 25.45997  
2001-11-05 07:52:13 51°13.689 2°55.905 12.927458 3.098235 25.45997  
2001-11-05 07:52:18 51°13.689 2°55.905 12.926112 3.09393 25.419883  
2001-11-05 07:52:23 51°13.689 2°55.905 12.9284 3.092228 25.403413  
2001-11-05 07:52:28 51°13.689 2°55.905 12.926381 3.09393 25.41885  
2001-11-05 07:52:33 51°13.689 2°55.905 12.925573 3.095632 25.435321  
2001-11-05 07:52:38 51°13.689 2°55.905 12.929028 3.097334 25.452313  
2001-11-05 07:52:43 51°13.689 2°55.905 12.929028 3.097334 25.452313  
2001-11-05 07:52:48 51°13.689 2°55.905 12.929746 3.099437 25.472424  
2001-11-05 07:52:53 51°13.689 2°55.905 12.927458 3.100338 25.482154  
2001-11-05 07:52:58 51°13.689 2°55.905 12.925125 3.102541 25.500069  
2001-11-05 07:53:03 51°13.689 2°55.905 12.923465 3.104443 25.519926  
2001-11-05 07:53:08 51°13.689 2°55.905 12.924048 3.106946 25.535377  
2001-11-05 07:53:13 51°13.689 2°55.905 12.924048 3.106946 25.535377  
2001-11-05 07:53:18 51°13.689 2°55.905 12.925798 3.108748 25.541869  
2001-11-05 07:53:23 51°13.689 2°55.905 12.927323 3.112553 25.572231  
2001-11-05 07:53:28 51°13.689 2°55.905 12.922522 3.115256 25.597276  
2001-11-05 07:53:33 51°13.689 2°55.905 12.923958 3.11816 25.623102  
2001-11-05 07:53:38 51°13.689 2°55.905 12.925798 3.118861 25.636752  
2001-11-05 07:53:43 51°13.689 2°55.905 12.925798 3.118861 25.636752  
2001-11-05 07:53:48 51°13.689 2°55.905 12.921535 3.119962 25.648834  
2001-11-05 07:53:53 51°13.689 2°55.905 12.924945 3.119762 25.647537  
2001-11-05 07:53:58 51°13.689 2°55.905 12.924003 3.120263 25.656774  
2001-11-05 07:54:03 51°13.689 2°55.905 12.924227 3.119462 25.648459  
2001-11-05 07:54:08 51°13.689 2°55.906 12.926516 3.121664 25.667416  
2001-11-05 07:54:13 51°13.688 2°55.906 12.926516 3.121664 25.667416  
2001-11-05 07:54:18 51°13.688 2°55.906 12.92683 3.122165 25.679268  
2001-11-05 07:54:23 51°13.688 2°55.906 12.926246 3.121765 25.676675  
2001-11-05 07:54:28 51°13.688 2°55.906 12.927906 3.123767 25.695909  
2001-11-05 07:54:33 51°13.688 2°55.906 12.925349 3.123667 25.696567  
2001-11-05 07:54:38 51°13.688 2°55.906 12.925663 3.124668 25.704095  
2001-11-05 07:54:44 51°13.688 2°55.906 12.925663 3.124668 25.704095  
2001-11-05 07:54:48 51°13.688 2°55.906 12.925573 3.12607 25.714739  
2001-11-05 07:54:53 51°13.688 2°55.906 12.924721 3.12597 25.715397  
2001-11-05 07:54:58 51°13.688 2°55.906 12.926875 3.12587 25.711351  
2001-11-05 07:55:02 51°13.689 2°55.906 12.923016 3.126771 25.722675  
2001-11-05 07:55:08 51°13.689 2°55.906 12.923913 3.127071 25.72488  
2001-11-05 07:55:13 51°13.689 2°55.906 12.923913 3.127071 25.72488  
2001-11-05 07:55:18 51°13.689 2°55.906 12.922298 3.128473 25.738663  
2001-11-05 07:55:23 51°13.689 2°55.906 12.923824 3.128974 25.743211  
2001-11-05 07:55:28 51°13.688 2°55.906 12.923644 3.131077 25.762841  
2001-11-05 07:55:33 51°13.688 2°55.906 12.924272 3.132578 25.775442  
2001-11-05 07:55:38 51°13.688 2°55.906 12.923913 3.132779 25.775689  
2001-11-05 07:55:44 51°13.688 2°55.906 12.923913 3.132779 25.775689  
2001-11-05 07:55:48 51°13.688 2°55.906 12.926157 3.134681 25.7956  
2001-11-05 07:55:53 51°13.688 2°55.906 12.924945 3.136183 25.8124  
2001-11-05 07:55:58 51°13.688 2°55.906 12.925304 3.136784 25.816286  
2001-11-05 07:56:03 51°13.688 2°55.906 12.924362 3.137985 25.827734  
2001-11-05 07:56:08 51°13.688 2°55.906 12.925304 3.138786 25.833965  
2001-11-05 07:56:13 51°13.688 2°55.906 12.925304 3.138786 25.833965  
2001-11-05 07:56:18 51°13.688 2°55.906 12.924811 3.139087 25.837221  
2001-11-05 07:56:22 51°13.688 2°55.906 12.926246 3.140489 25.851017  
2001-11-05 07:56:28 51°13.688 2°55.906 12.928804 3.141089 25.857005  
2001-11-05 07:56:33 51°13.688 2°55.906 12.931496 3.142491 25.869751  
2001-11-05 07:56:38 51°13.688 2°55.906 12.930464 3.144494 25.887435  
2001-11-05 07:56:43 51°13.688 2°55.906 12.930464 3.144494 25.887435  
2001-11-05 07:56:48 51°13.688 2°55.906 12.93015 3.146797 25.908905  
2001-11-05 07:56:53 51°13.688 2°55.906 12.928938 3.1494 25.933638  
2001-11-05 07:56:58 51°13.688 2°55.907 12.929432 3.151703 25.953532  
2001-11-05 07:57:03 51°13.688 2°55.907 12.929522 3.153906 25.969347  
2001-11-05 07:57:08 51°13.688 2°55.907 12.928579 3.153906 25.970931  
2001-11-05 07:57:13 51°13.688 2°55.907 12.928579 3.153906 25.970931  
2001-11-05 07:57:18 51°13.688 2°55.907 12.930239 3.154807 25.979129  
2001-11-05 07:57:22 51°13.688 2°55.907 12.935757 3.155208 25.983301  
2001-11-05 07:57:28 51°13.688 2°55.907 12.930912 3.157211 26.002049  
2001-11-05 07:57:33 51°13.688 2°55.907 12.926381 3.15681 25.997348  
2001-11-05 07:57:38 51°13.688 2°55.907 12.922298 3.157211 26.003636  
2001-11-05 07:57:43 51°13.688 2°55.907 12.922298 3.157211 26.003636  
2001-11-05 07:57:48 51°13.688 2°55.907 12.922074 3.154607 25.974138  
2001-11-05 07:57:53 51°13.688 2°55.907 12.919561 3.152104 25.942931  
2001-11-05 07:57:58 51°13.688 2°55.907 12.920862 3.144293 25.866678  
2001-11-05 07:58:03 51°13.688 2°55.907 12.923689 3.14179 25.846033  
2001-11-05 07:58:08 51°13.688 2°55.907 12.924048 3.143993 25.869204  
2001-11-05 07:58:13 51°13.688 2°55.907 12.924048 3.143993 25.869204  
2001-11-05 07:58:18 51°13.688 2°55.907 12.926157 3.145795 25.886638  
2001-11-05 07:58:22 51°13.688 2°55.907 12.929297 3.146797 25.899951  
2001-11-05 07:58:28 51°13.688 2°55.907 12.929746 3.148599 25.92108  
2001-11-05 07:58:33 51°13.688 2°55.907 12.929208 3.150402 25.937471  
2001-11-05 07:58:38 51°13.688 2°55.907 12.931271 3.150902 25.946773  
2001-11-05 07:58:43 51°13.688 2°55.907 12.931271 3.150902 25.946773  
2001-11-05 07:58:48 51°13.688 2°55.907 12.930688 3.152805 25.96144  
2001-11-05 07:58:53 51°13.688 2°55.907 12.928445 3.154907 25.981625  
2001-11-05 07:58:58 51°13.688 2°55.906 12.92849 3.15691 25.99773  
2001-11-05 07:59:03 51°13.688 2°55.906 12.929028 3.159313 26.020653  
2001-11-05 07:59:08 51°13.688 2°55.906 12.927548 3.160715 26.030762  
2001-11-05 07:59:13 51°13.688 2°55.906 12.927548 3.160715 26.030762  
2001-11-05 07:59:18 51°13.688 2°55.906 12.927996 3.161216 26.035317  
2001-11-05 07:59:24 51°13.688 2°55.906 12.930105 3.162117 26.045106  
2001-11-05 07:59:28 51°13.688 2°55.906 12.927233 3.161917 26.045932  
2001-11-05 07:59:33 51°13.688 2°55.906 12.926964 3.161917 26.043813  
2001-11-05 07:59:38 51°13.688 2°55.906 12.926964 3.161917 26.045932  
2001-11-05 07:59:43 51°13.688 2°55.906 12.926964 3.161917 26.045932  
2001-11-05 07:59:48 51°13.688 2°55.906 12.920279 3.162417 26.050488  
2001-11-05 07:59:53 51°13.688 2°55.906 12.914176 3.162918 26.052925  
2001-11-05 07:59:58 51°13.688 2°55.906 12.911618 3.16462 26.069477  
2001-11-05 08:00:04 51°13.688 2°55.906 12.912471 3.165121 26.075625  
2001-11-05 08:00:08 51°13.688 2°55.906 12.914221 3.162618 26.050721  
2001-11-05 08:00:13 51°13.688 2°55.906 12.914221 3.162618 26.050721  
2001-11-05 08:00:18 51°13.688 2°55.906 12.913279 3.157511 26.004782  
2001-11-05 08:00:23 51°13.688 2°55.906 12.915029 3.148299 25.926256  
2001-11-05 08:00:28 51°13.688 2°55.906 12.913054 3.146196 25.908183  
2001-11-05 08:00:33 51°13.688 2°55.906 12.912471 3.145595 25.905354  
2001-11-05 08:00:38 51°13.688 2°55.906 12.915253 3.144494 25.896915  
2001-11-05 08:00:43 51°13.688 2°55.907 12.915253 3.144494 25.896915  
2001-11-05 08:00:48 51°13.688 2°55.906 12.91467 3.147498 25.923188  
2001-11-05 08:00:53 51°13.688 2°55.906 12.911035 3.145696 25.908373  
2001-11-05 08:00:58 51°13.688 2°55.906 12.903809 3.147097 25.921126  
2001-11-05 08:01:03 51°13.688 2°55.906 12.899949 3.148099 25.929709  
2001-11-05 08:01:08 51°13.688 2°55.906 12.89986 3.148699 25.934648  
2001-11-05 08:01:13 51°13.688 2°55.906 12.89986 3.148699 25.934648  
2001-11-05 08:01:18 51°13.688 2°55.906 12.900129 3.149801 25.944141  
2001-11-05 08:01:23 51°13.688 2°55.906 12.900667 3.147898 25.92525  
2001-11-05 08:01:28 51°13.688 2°55.906 12.900084 3.140789 25.862689  
2001-11-05 08:01:33 51°13.688 2°55.906 12.898962 3.131477 25.78011  
2001-11-05 08:01:38 51°13.688 2°55.906 12.899949 3.124368 25.721241  
2001-11-05 08:01:43 51°13.688 2°55.906 12.899949 3.124368 25.721241  
2001-11-05 08:01:48 51°13.688 2°55.906 12.902149 3.122566 25.704856  
2001-11-05 08:01:53 51°13.688 2°55.906 12.902104 3.122366 25.70199  
2001-11-05 08:01:58 51°13.688 2°55.906 12.902732 3.122366 25.705128  
2001-11-05 08:02:03 51°13.688 2°55.907 12.904752 3.123267 25.713321  
2001-11-05 08:02:08 51°13.688 2°55.907 12.906143 3.123367 25.714231  
2001-11-05 08:02:13 51°13.688 2°55.906 12.906143 3.123367 25.714231  
2001-11-05 08:02:18 51°13.688 2°55.907 12.910227 3.124268 25.720854  
2001-11-05 08:02:23 51°13.688 2°55.907 12.908791 3.12537 25.730344  
2001-11-05 08:02:28 51°13.688 2°55.906 12.910092 3.124769 25.725929  
2001-11-05 08:02:33 51°13.689 2°55.906 12.909913 3.126271 25.737489  
2001-11-05 08:02:38 51°13.689 2°55.906 12.909509 3.127372 25.747503  
2001-11-05 08:02:43 51°13.689 2°55.906 12.909509 3.127372 25.747503  
2001-11-05 08:02:48 51°13.689 2°55.906 12.910496 3.128373 25.754511  
2001-11-05 08:02:53 51°13.689 2°55.906 12.909195 3.129975 25.771174  
2001-11-05 08:02:58 51°13.689 2°55.906 12.910676 3.131177 25.7821  
2001-11-05 08:03:03 51°13.689 2°55.906 12.910317 3.132779 25.792995  
2001-11-05 08:03:08 51°13.689 2°55.906 12.910586 3.133079 25.796252  
2001-11-05 08:03:13 51°13.689 2°55.906 12.910586 3.133079 25.796252  
2001-11-05 08:03:18 51°13.689 2°55.906 12.908926 3.134782 25.811206  
2001-11-05 08:03:23 51°13.689 2°55.906 12.911394 3.135282 25.813658  
2001-11-05 08:03:28 51°13.689 2°55.906 12.909778 3.13378 25.801575  
2001-11-05 08:03:33 51°13.689 2°55.906 12.911259 3.134581 25.808859  
2001-11-05 08:03:38 51°13.689 2°55.906 12.91081 3.135583 25.817965  
2001-11-05 08:03:43 51°13.689 2°55.906 12.91081 3.135583 25.817965  
2001-11-05 08:03:48 51°13.689 2°55.906 12.909778 3.135482 25.81863  
2001-11-05 08:03:53 51°13.689 2°55.906 12.905111 3.136183 25.821852  
2001-11-05 08:03:58 51°13.689 2°55.906 12.905335 3.135783 25.819786  
2001-11-05 08:04:04 51°13.689 2°55.906 12.90556 3.134681 25.809245  
2001-11-05 08:04:08 51°13.689 2°55.905 12.908387 3.13338 25.796884  
2001-11-05 08:04:13 51°13.689 2°55.905 12.908387 3.13338 25.796884  
2001-11-05 08:04:18 51°13.689 2°55.905 12.90897 3.131377 25.781298  
2001-11-05 08:04:22 51°13.689 2°55.905 12.909778 3.130676 25.77545  
2001-11-05 08:04:28 51°13.689 2°55.905 12.908791 3.129275 25.763228  
2001-11-05 08:04:33 51°13.689 2°55.905 12.911259 3.129174 25.762318  
2001-11-05 08:04:38 51°13.689 2°55.905 12.909958 3.130176 25.771946  
2001-11-05 08:04:43 51°13.689 2°55.905 12.909958 3.130176 25.771946  
2001-11-05 08:04:48 51°13.689 2°55.906 12.910496 3.130176 25.769849  
2001-11-05 08:04:53 51°13.689 2°55.905 12.910362 3.130676 25.773876  
2001-11-05 08:04:58 51°13.689 2°55.905 12.911753 3.132879 25.793381  
2001-11-05 08:05:03 51°13.689 2°55.905 12.912471 3.13378 25.80315  
2001-11-05 08:05:08 51°13.689 2°55.906 12.913772 3.134581 25.808859  
2001-11-05 08:05:13 51°13.689 2°55.905 12.913772 3.134581 25.808859  
2001-11-05 08:05:18 51°13.689 2°55.906 12.91292 3.134381 25.806513  
2001-11-05 08:05:23 51°13.689 2°55.905 12.913727 3.135683 25.816774  
2001-11-05 08:05:28 51°13.689 2°55.905 12.914535 3.136384 25.825775  
2001-11-05 08:05:33 51°13.689 2°55.905 12.913862 3.137084 25.829522  
2001-11-05 08:05:38 51°13.689 2°55.906 12.913997 3.137685 25.835511  
2001-11-05 08:05:43 51°13.689 2°55.905 12.913997 3.137685 25.835511  
2001-11-05 08:05:49 51°13.689 2°55.906 12.914356 3.137886 25.839435  
2001-11-05 08:05:53 51°13.689 2°55.906 12.913952 3.139488 25.850325  
2001-11-05 08:05:58 51°13.689 2°55.906 12.914176 3.138686 25.844091  
2001-11-05 08:06:03 51°13.689 2°55.905 12.915388 3.139187 25.850222  
2001-11-05 08:06:08 51°13.689 2°55.905 12.91642 3.139487 25.84349  
2001-11-05 08:06:13 51°13.689 2°55.905 12.91642 3.139487 25.84349  
2001-11-05 08:06:18 51°13.689 2°55.905 12.914715 3.14129 25.85094  
2001-11-05 08:06:23 51°13.689 2°55.905 12.914356 3.14139 25.850799  
2001-11-05 08:06:28 51°13.689 2°55.905 12.914535 3.140889 25.841521  
2001-11-05 08:06:33 51°13.689 2°55.905 12.917362 3.142491 25.853453  
2001-11-05 08:06:38 51°13.689 2°55.905 12.916913 3.142091 25.849288  
2001-11-05 08:06:43 51°13.689 2°55.905 12.916913 3.142091 25.849288  
2001-11-05 08:06:48 51°13.689 2°55.905 12.917003 3.143793 25.865282  
2001-11-05 08:06:53 51°13.689 2°55.905 12.917138 3.144394 25.870741  
2001-11-05 08:06:58 51°13.689 2°55.905 12.918753 3.146596 25.892867  
2001-11-05 08:07:03 51°13.689 2°55.905 12.917407 3.145795 25.889795  
2001-11-05 08:07:08 51°13.689 2°55.905 12.917272 3.146597 25.902343  
2001-11-05 08:07:13 51°13.689 2°55.905 12.917272 3.146597 25.902343  
2001-11-05 08:07:18 51°13.689 2°55.905 12.919022 3.146897 25.908235  
2001-11-05 08:07:22 51°13.688 2°55.905 12.91817 3.147698 25.913939  
2001-11-05 08:07:28 51°13.689 2°55.905 12.92149 3.149 25.925777  
2001-11-05 08:07:33 51°13.689 2°55.905 12.921087 3.150502 25.942075  
2001-11-05 08:07:38 51°13.689 2°55.905 12.91983 3.150302 25.945002  
2001-11-05 08:07:43 51°13.689 2°55.905 12.91983 3.150302 25.945002  
2001-11-05 08:07:48 51°13.689 2°55.905 12.920638 3.151904 25.961162  
2001-11-05 08:07:53 51°13.689 2°55.905 12.920907 3.152605 25.967539  
2001-11-05 08:07:58 51°13.689 2°55.905 12.920413 3.154807 25.985999  
2001-11-05 08:08:03 51°13.689 2°55.905 12.921445 3.15691 26.003018  
2001-11-05 08:08:08 51°13.689 2°55.905 12.920907 3.157711 26.012953  
2001-11-05 08:08:13 51°13.688 2°55.905 12.920907 3.157711 26.012953  
2001-11-05 08:08:18 51°13.688 2°55.905 12.921445 3.160014 26.033384  
2001-11-05 08:08:23 51°13.688 2°55.905 12.922074 3.161116 26.042349  
2001-11-05 08:08:28 51°13.688 2°55.905 12.92158 3.161817 26.048199  
2001-11-05 08:08:33 51°13.688 2°55.905 12.921849 3.163719 26.066046  
2001-11-05 08:08:38 51°13.688 2°55.905 12.922253 3.165121 26.076686  
2001-11-05 08:08:43 51°13.688 2°55.905 12.922253 3.165121 26.076686  
2001-11-05 08:08:48 51°13.688 2°55.905 12.922388 3.166923 26.094685  
2001-11-05 08:08:53 51°13.687 2°55.905 12.918888 3.167825 26.100766  
2001-11-05 08:08:58 51°13.687 2°55.905 12.878177 3.168125 26.106686  
2001-11-05 08:09:02 51°13.687 2°55.905 12.836003 3.169427 26.118007  
2001-11-05 08:09:08 51°13.687 2°55.905 12.817041 3.17173 26.138978  
2001-11-05 08:09:13 51°13.687 2°55.906 12.817041 3.17173 26.138978  
2001-11-05 08:09:18 51°13.687 2°55.905 12.808187 3.172531 26.1484  
2001-11-05 08:09:23 51°13.687 2°55.905 12.805581 3.168626 26.112307  
2001-11-05 08:09:28 51°13.687 2°55.905 12.810615 3.135382 25.817194  
2001-11-05 08:09:33 51°13.687 2°55.905 12.807918 3.056987 25.120823  
2001-11-05 08:09:38 51°13.687 2°55.905 12.811693 2.989714 24.529192  
2001-11-05 08:09:42 51°13.687 2°55.905 12.811693 2.989714 24.529192  
2001-11-05 08:09:48 51°13.687 2°55.905 12.81812 2.951577 24.200236  
2001-11-05 08:09:53 51°13.688 2°55.905 12.81457 2.935862 24.061214  
2001-11-05 08:09:58 51°13.688 2°55.905 12.813131 2.930657 24.013722  
2001-11-05 08:10:03 51°13.688 2°55.905 12.812412 2.930457 24.011914  
2001-11-05 08:10:08 51°13.688 2°55.905 12.777212 2.928955 23.998358  
2001-11-05 08:10:13 51°13.688 2°55.905 12.777212 2.928955 23.998358  
2001-11-05 08:10:18 51°13.688 2°55.905 12.755805 2.930357 24.014437  
2001-11-05 08:10:22 51°13.688 2°55.905 12.753466 2.931258 24.026001  
2001-11-05 08:10:28 51°13.688 2°55.905 12.755805 2.929956 24.015228  
2001-11-05 08:10:33 51°13.688 2°55.905 12.757109 2.929956 24.014738  
2001-11-05 08:10:38 51°13.688 2°55.905 12.757694 2.902732 23.779674  
2001-11-05 08:10:43 51°13.688 2°55.905 12.757694 2.902732 23.779674  
2001-11-05 08:10:48 51°13.688 2°55.905 12.758728 2.852191 23.328373  
2001-11-05 08:10:53 51°13.688 2°55.905 12.758413 2.828974 23.130735  
2001-11-05 08:10:58 51°13.688 2°55.905 12.761922 2.818366 23.039054  
2001-11-05 08:11:03 51°13.688 2°55.905 12.760438 2.817166 23.030601  
2001-11-05 08:11:08 51°13.688 2°55.905 12.763676 2.814063 23.004101  
2001-11-05 08:11:13 51°13.688 2°55.905 12.763676 2.814063 23.004101  
2001-11-05 08:11:18 51°13.688 2°55.905 12.764575 2.811762 22.984803  
2001-11-05 08:11:23 51°13.688 2°55.905 12.76462 2.810661 22.972087  
2001-11-05 08:11:28 51°13.688 2°55.905 12.765925 2.811562 22.983003  
2001-11-05 08:11:33 51°13.688 2°55.905 12.768983 2.811862 22.986642  
2001-11-05 08:11:38 51°13.688 2°55.905 12.76606 2.813563 23.000539  
2001-11-05 08:11:43 51°13.688 2°55.905 12.76606 2.813563 23.000539  
2001-11-05 08:11:48 51°13.688 2°55.905 12.770287 2.814864 23.009424  
2001-11-05 08:11:53 51°13.688 2°55.905 12.766644 2.815965 23.022147  
2001-11-05 08:11:58 51°13.688 2°55.905 12.765925 2.817866 23.036904  
2001-11-05 08:12:03 51°13.688 2°55.905 12.76615 2.819968 23.054871  
2001-11-05 08:12:08 51°13.688 2°55.905 12.768218 2.821168 23.066148  
2001-11-05 08:12:13 51°13.688 2°55.905 12.768218 2.821168 23.066148  
2001-11-05 08:12:18 51°13.688 2°55.905 12.769747 2.820768 23.063488  
2001-11-05 08:12:22 51°13.688 2°55.905 12.774065 2.820868 23.06533  
2001-11-05 08:12:29 51°13.688 2°55.905 12.774469 2.820468 23.05702  
2001-11-05 08:12:33 51°13.688 2°55.905 12.776538 2.820968 23.064347  
2001-11-05 08:12:38 51°13.688 2°55.905 12.77982 2.822569 23.0764  
2001-11-05 08:12:43 51°13.688 2°55.905 12.77982 2.822569 23.0764  
2001-11-05 08:12:48 51°13.688 2°55.905 12.782923 2.825572 23.102002  
2001-11-05 08:12:53 51°13.688 2°55.905 12.787239 2.830175 23.146267  
2001-11-05 08:12:58 51°13.688 2°55.905 12.788498 2.834978 23.185254  
2001-11-05 08:13:03 51°13.688 2°55.905 12.791106 2.838081 23.212237  
2001-11-05 08:13:08 51°13.688 2°55.905 12.792814 2.842684 23.253214  
2001-11-05 08:13:13 51°13.688 2°55.905 12.792814 2.842684 23.253214  
2001-11-05 08:13:18 51°13.688 2°55.905 12.795242 2.847187 23.290445  
2001-11-05 08:13:23 51°13.688 2°55.905 12.796411 2.854393 23.355348  
2001-11-05 08:13:28 51°13.688 2°55.905 12.794747 2.859497 23.400379  
2001-11-05 08:13:33 51°13.688 2°55.905 12.795242 2.866702 23.462445  
2001-11-05 08:13:38 51°13.688 2°55.905 12.795601 2.871606 23.506168  
2001-11-05 08:13:42 51°13.688 2°55.905 12.795601 2.871606 23.506168  
2001-11-05 08:13:48 51°13.688 2°55.905 12.795916 2.875309 23.53763  
2001-11-05 08:14:40 51°13.688 2°55.905 12.804771 2.893124 23.695399  
2001-11-05 08:14:45 51°13.688 2°55.905 12.804277 2.897127 23.730551  
2001-11-05 08:14:50 51°13.688 2°55.905 12.806839 2.899129 23.746675  
2001-11-05 08:14:55 51°13.688 2°55.905 12.806839 2.899129 23.746675  
2001-11-05 08:15:00 51°13.688 2°55.905 12.805805 2.902532 23.774957  
2001-11-05 08:15:05 51°13.688 2°55.905 12.805491 2.904734 23.794827  
2001-11-05 08:15:10 51°13.688 2°55.905 12.805221 2.908537 23.831097  
2001-11-05 08:15:15 51°13.688 2°55.905 12.806974 2.910139 23.846039  
2001-11-05 08:15:20 51°13.688 2°55.905 12.808682 2.91144 23.857786  
2001-11-05 08:15:25 51°13.688 2°55.905 12.808682 2.91144 23.857786  
2001-11-05 08:15:30 51°13.688 2°55.905 12.807963 2.913742 23.876621  
2001-11-05 08:15:35 51°13.688 2°55.905 12.808367 2.914943 23.887952  
2001-11-05 08:15:40 51°13.688 2°55.905 12.809491 2.917245 23.909714  
2001-11-05 08:15:45 51°13.688 2°55.905 12.808143 2.919047 23.927448  
2001-11-05 08:15:50 51°13.688 2°55.905 12.809716 2.921649 23.94851  
2001-11-05 08:15:55 51°13.688 2°55.905 12.809716 2.921649 23.94851  
2001-11-05 08:16:00 51°13.688 2°55.905 12.811244 2.921949 23.951222  
2001-11-05 08:16:05 51°13.688 2°55.905 12.812502 2.923751 23.967495  
2001-11-05 08:16:10 51°13.688 2°55.905 12.813401 2.925152 23.980641  
2001-11-05 08:16:15 51°13.688 2°55.905 12.814614 2.926653 23.991757  
2001-11-05 08:16:20 51°13.688 2°55.905 12.813446 2.927154 23.998725  
2001-11-05 08:16:25 51°13.688 2°55.905 12.813446 2.927154 23.998725  
2001-11-05 08:16:30 51°13.688 2°55.905 12.815828 2.930357 24.025213  
2001-11-05 08:16:35 51°13.688 2°55.905 12.816098 2.931358 24.034746  
2001-11-05 08:16:40 51°13.688 2°55.905 12.816277 2.932659 24.046013  
2001-11-05 08:16:45 51°13.688 2°55.905 12.815828 2.93346 24.051776  
2001-11-05 08:16:50 51°13.688 2°55.905 12.814839 2.935762 24.069632  
2001-11-05 08:16:55 51°13.688 2°55.905 12.814839 2.935762 24.069632  
2001-11-05 08:17:00 51°13.688 2°55.905 12.815199 2.935662 24.070201  
2001-11-05 08:17:05 51°13.688 2°55.905 12.816232 2.935261 24.068056  
2001-11-05 08:17:10 51°13.688 2°55.905 12.817311 2.937063 24.08188  
2001-11-05 08:17:15 51°13.688 2°55.905 12.817086 2.935862 24.072991  
2001-11-05 08:17:20 51°13.688 2°55.905 12.820007 2.937864 24.089607  
2001-11-05 08:17:25 51°13.688 2°55.905 12.820007 2.937864 24.089607  
2001-11-05 08:17:30 51°13.688 2°55.905 12.821715 2.938364 24.094621  
2001-11-05 08:17:36 51°13.688 2°55.905 12.822389 2.938665 24.097335  
2001-11-05 08:17:40 51°13.688 2°55.905 12.823512 2.939465 24.104571  
2001-11-05 08:17:45 51°13.688 2°55.905 12.82486 2.941067 24.118061  
2001-11-05 08:17:50 51°13.688 2°55.905 12.826972 2.941467 24.11922  
2001-11-05 08:17:55 51°13.688 2°55.905 12.826972 2.941467 24.11922  
2001-11-05 08:18:00 51°13.688 2°55.905 12.828949 2.94417 24.140198  
2001-11-05 08:18:05 51°13.688 2°55.905 12.829084 2.946071 24.157385  
2001-11-05 08:18:10 51°13.688 2°55.905 12.830612 2.948674 24.180906  
2001-11-05 08:18:15 51°13.688 2°55.905 12.834386 2.951276 24.204923  
2001-11-05 08:18:20 51°13.688 2°55.905 12.836587 2.95458 24.236268  
2001-11-05 08:18:25 51°13.688 2°55.905 12.836587 2.95458 24.236268  
2001-11-05 08:18:30 51°13.687 2°55.905 12.838744 2.957783 24.263747  
2001-11-05 08:18:35 51°13.687 2°55.905 12.842742 2.962487 24.30431  
2001-11-05 08:18:40 51°13.687 2°55.905 12.839642 2.966291 24.338217  
2001-11-05 08:18:45 51°13.687 2°55.905 12.839553 2.970195 24.372536  
2001-11-05 08:18:50 51°13.687 2°55.905 12.840451 2.973898 24.404054  
2001-11-05 08:18:55 51°13.687 2°55.906 12.840451 2.973898 24.404054  
2001-11-05 08:19:00 51°13.687 2°55.905 12.836857 2.979604 24.456179  
2001-11-05 08:19:05 51°13.687 2°55.906 12.83178 2.987913 24.530381  
2001-11-05 08:19:10 51°13.687 2°55.906 12.830387 2.998924 24.627578  
2001-11-05 08:19:15 51°13.687 2°55.906 12.829444 3.003929 24.672409  
2001-11-05 08:19:20 51°13.687 2°55.906 12.82486 3.002428 24.65529  
2001-11-05 08:19:25 51°13.687 2°55.906 12.82486 3.002428 24.65529  
2001-11-05 08:19:30 51°13.687 2°55.906 12.819917 3.010336 24.732972  
2001-11-05 08:19:35 51°13.687 2°55.906 12.82131 3.002828 24.665451  
2001-11-05 08:19:40 51°13.687 2°55.905 12.824276 2.998924 24.626574  
2001-11-05 08:19:45 51°13.687 2°55.905 12.825579 2.994319 24.588386  
2001-11-05 08:19:50 51°13.687 2°55.905 12.822119 2.988313 24.531505  
2001-11-05 08:19:55 51°13.687 2°55.905 12.822119 2.988313 24.531505  
2001-11-05 08:20:00 51°13.687 2°55.905 12.820097 2.977802 24.433399  
2001-11-05 08:20:05 51°13.687 2°55.906 12.820502 2.974799 24.40325  
2001-11-05 08:20:10 51°13.687 2°55.906 12.817895 2.972697 24.386227  
2001-11-05 08:20:15 51°13.687 2°55.906 12.816637 2.973598 24.396861  
2001-11-05 08:20:20 51°13.687 2°55.906 12.818345 2.971096 24.377704  
2001-11-05 08:20:25 51°13.688 2°55.906 12.818345 2.971096 24.377704  
2001-11-05 08:20:30 51°13.688 2°55.906 12.816502 2.967792 24.350309  
2001-11-05 08:20:35 51°13.688 2°55.905 12.818255 2.964489 24.3244  
2001-11-05 08:20:40 51°13.688 2°55.905 12.820636 2.961887 24.296897  
2001-11-05 08:20:45 51°13.688 2°55.905 12.818524 2.959184 24.275429  
2001-11-05 08:20:50 51°13.688 2°55.905 12.8183 2.958383 24.269673  
2001-11-05 08:20:55 51°13.688 2°55.905 12.8183 2.958383 24.269673  
2001-11-05 08:21:01 51°13.688 2°55.906 12.821086 2.958383 24.271157  
2001-11-05 08:21:05 51°13.688 2°55.905 12.820142 2.959284 24.278809  
2001-11-05 08:21:10 51°13.688 2°55.905 12.821985 2.961186 24.297992  
2001-11-05 08:21:15 51°13.688 2°55.905 12.823557 2.964389 24.325478  
2001-11-05 08:21:20 51°13.688 2°55.905 12.823288 2.967692 24.354865  
2001-11-05 08:21:25 51°13.688 2°55.906 12.823288 2.967692 24.354865  
2001-11-05 08:21:30 51°13.688 2°55.905 12.823647 2.972397 24.395443  
2001-11-05 08:21:35 51°13.688 2°55.905 12.824007 2.9752 24.421303  
2001-11-05 08:21:40 51°13.688 2°55.905 12.824726 2.978503 24.452695  
2001-11-05 08:21:45 51°13.688 2°55.905 12.826164 2.980205 24.468099  
2001-11-05 08:21:50 51°13.689 2°55.905 12.827332 2.978103 24.44957  
2001-11-05 08:21:55 51°13.689 2°55.905 12.827332 2.978103 24.44957  
2001-11-05 08:22:00 51°13.689 2°55.905 12.826388 2.979905 24.46588  
2001-11-05 08:22:05 51°13.689 2°55.905 12.827871 2.980705 24.471632  
2001-11-05 08:22:10 51°13.689 2°55.905 12.828365 2.981106 24.474757  
2001-11-05 08:22:15 51°13.689 2°55.905 12.829533 2.980205 24.465604  
2001-11-05 08:22:20 51°13.688 2°55.905 12.829533 2.980505 24.467824  
2001-11-05 08:22:25 51°13.688 2°55.905 12.829533 2.980505 24.467824  
2001-11-05 08:22:30 51°13.688 2°55.905 12.829399 2.980305 24.465014  
2001-11-05 08:22:35 51°13.688 2°55.905 12.831555 2.979904 24.463385  
2001-11-05 08:22:40 51°13.688 2°55.905 12.830926 2.980605 24.467233  
2001-11-05 08:22:45 51°13.688 2°55.905 12.831196 2.981506 24.476884  
2001-11-05 08:22:50 51°13.688 2°55.905 12.831286 2.982507 24.481453  
2001-11-05 08:22:55 51°13.688 2°55.906 12.831286 2.982507 24.481453  
2001-11-05 08:23:00 51°13.689 2°55.906 12.832589 2.982007 24.475426  
2001-11-05 08:23:05 51°13.689 2°55.906 12.832499 2.982707 24.482766  
2001-11-05 08:23:10 51°13.689 2°55.906 12.832724 2.982207 24.478735  
2001-11-05 08:23:16 51°13.689 2°55.905 12.8347 2.980505 24.465329  
2001-11-05 08:23:20 51°13.689 2°55.905 12.835644 2.981806 24.47561  
2001-11-05 08:23:25 51°13.689 2°55.905 12.835644 2.981806 24.47561  
2001-11-05 08:23:30 51°13.689 2°55.905 12.83515 2.983408 24.493601  
2001-11-05 08:23:35 51°13.689 2°55.905 12.835914 2.98541 24.510226  
2001-11-05 08:23:41 51°13.689 2°55.905 12.836138 2.987112 24.522632  
2001-11-05 08:23:45 51°13.689 2°55.905 12.837666 2.988713 24.538631  
2001-11-05 08:23:50 51°13.689 2°55.905 12.836722 2.990715 24.557258  
2001-11-05 08:23:55 51°13.689 2°55.905 12.836722 2.990715 24.557258  
2001-11-05 08:24:01 51°13.689 2°55.905 12.836632 2.993218 24.576912  
2001-11-05 08:24:05 51°13.689 2°55.905 12.83798 2.99532 24.595445  
2001-11-05 08:24:10 51°13.689 2°55.905 12.838744 2.998423 24.621038  
2001-11-05 08:24:15 51°13.689 2°55.905 12.839418 3.000025 24.633533  
2001-11-05 08:24:20 51°13.689 2°55.905 12.839058 2.999725 24.631818  
2001-11-05 08:24:25 51°13.689 2°55.905 12.839058 2.999725 24.631818  
2001-11-05 08:24:30 51°13.689 2°55.905 12.840676 3.000125 24.638457  
2001-11-05 08:24:35 51°13.689 2°55.905 12.840092 3.001827 24.656886  
2001-11-05 08:24:40 51°13.689 2°55.905 12.839193 3.001226 24.649938  
2001-11-05 08:24:45 51°13.689 2°55.905 12.842742 2.999725 24.636337  
2001-11-05 08:24:50 51°13.689 2°55.905 12.839508 3.003329 24.667974  
2001-11-05 08:24:55 51°13.689 2°55.905 12.839508 3.003329 24.667974  
2001-11-05 08:25:00 51°13.689 2°55.905 12.839148 2.998724 24.625765  
2001-11-05 08:25:05 51°13.689 2°55.905 12.838564 3.002728 24.663539  
2001-11-05 08:25:10 51°13.689 2°55.906 12.839912 3.003929 24.674421  
2001-11-05 08:25:15 51°13.689 2°55.906 12.839148 3.00453 24.678353  
2001-11-05 08:25:20 51°13.689 2°55.906 12.840092 3.004029 24.673316  
2001-11-05 08:25:25 51°13.689 2°55.906 12.840092 3.004029 24.673316  
2001-11-05 08:25:30 51°13.689 2°55.906 12.840721 3.00463 24.678756  
2001-11-05 08:25:35 51°13.689 2°55.906 12.841619 3.004029 24.675831  
2001-11-05 08:25:40 51°13.689 2°55.906 12.84117 3.004029 24.677843  
2001-11-05 08:25:45 51°13.689 2°55.906 12.841215 3.005331 24.687117  
2001-11-05 08:25:50 51°13.689 2°55.906 12.840361 3.005831 24.690142  
2001-11-05 08:25:55 51°13.689 2°55.906 12.840361 3.005831 24.690142  
2001-11-05 08:26:00 51°13.689 2°55.906 12.841439 3.006332 24.695683  
2001-11-05 08:26:05 51°13.689 2°55.906 12.842742 3.006232 24.695783  
2001-11-05 08:26:10 51°13.689 2°55.906 12.842338 3.006532 24.695986  
2001-11-05 08:26:15 51°13.689 2°55.906 12.844359 3.007032 24.69901  
2001-11-05 08:26:20 51°13.689 2°55.906 12.844269 3.007133 24.702435  
2001-11-05 08:26:25 51°13.689 2°55.906 12.844269 3.007133 24.702435  
2001-11-05 08:26:30 51°13.689 2°55.906 12.844853 3.006432 24.69508  
2001-11-05 08:26:35 51°13.689 2°55.906 12.845078 3.007933 24.708179  
2001-11-05 08:26:40 51°13.689 2°55.905 12.84409 3.009035 24.716644  
2001-11-05 08:26:45 51°13.689 2°55.906 12.844584 3.010436 24.731862  
2001-11-05 08:26:50 51°13.689 2°55.906 12.845977 3.012839 24.75111  
2001-11-05 08:26:55 51°13.689 2°55.906 12.845977 3.012839 24.75111  
2001-11-05 08:27:00 51°13.689 2°55.906 12.84683 3.014841 24.770262  
2001-11-05 08:27:05 51°13.689 2°55.906 12.847504 3.01444 24.761586